Weather Roundup
Issued by NWS Chicago, IL

Home | Current Version | Previous Version | Text Only | Print | Product List | Glossary Off
Versions: 1 2 3 4 5 6 7 8 9 10 11 12 13 14 15 16 17 18 19 20 21 22 23 24 25 26 27 28 29 30 31 32 33 34 35 36 37 38 39 40 41 42 43 44 45 46 47 48 49 50

355
NZUS59 KLOT 150208
HRRLOT

CHICAGO AREA WEATHER ROUNDUP
NATIONAL WEATHER SERVICE CHICAGO/ROMEOVILLE IL
800 PM CST THU DEC 14 2017

NOTE: "FAIR" INDICATES FEW OR NO CLOUDS BELOW 12,000 FEET WITH NO
SIGNIFICANT WEATHER AND/OR OBSTRUCTIONS TO VISIBILITY.

* THESE STATIONS ARE NOT UNDER NWS QUALITY CONTROL. THEY ALSO MAY NOT
  REPORT WEATHER SUCH AS PRECIPITATION OR FOG.

ILZ005-006-012>014-019>023-150300-
NORTHEAST ILLINOIS

CITY           SKY/WX    TMP DP  RH WIND       PRES   REMARKS
OHARE          PTCLDY    21  11  65 SW3       30.06F
MIDWAY         PTCLDY    22  11  62 W5        30.08S WCI  16
AURORA         CLEAR     19  10  68 SW5       30.08S WCI  12
LANSING*       CLEAR     21  11  67 W3        30.08F
JOLIET*        CLEAR     19  11  72 CALM      30.09F
WAUKEGAN       CLOUDY    15  10  80 VRB3      30.05S
DUPAGE AIRPORT CLEAR     15  12  88 SW5       30.06S WCI   8
WHEELING       MOCLDY    22  12  65 SW3       30.08S
KANKAKEE*      CLEAR     21  11  66 W3        30.09F
MORRIS*        CLEAR     16   8  70 W3        30.08F
LEWIS AIRPORT* CLEAR     19  11  70 CALM      30.08F
NORTHERLY ISL    N/A     24  11  57 W2          N/A
$$

WIZ051-052-058>065-066-070>072-150300-
SOUTHEAST WISCONSIN

CITY           SKY/WX    TMP DP  RH WIND       PRES   REMARKS
MILWAUKEE      CLOUDY    20  12  71 CALM      30.05S
KENOSHA*       PTCLDY    16   8  71 S5        30.05S WCI   9
RACINE*        CLOUDY    15   9  76 CALM      30.06F
BURLINGTON     CLOUDY    14  12  92 SW3       30.04S
WAUKESHA       CLOUDY    18  10  73 S3        30.03F
WEST BEND      CLOUDY    14  12  92 CALM      30.01F
$$

INZ001>003-010>013-019-020-150300-
NORTHWEST INDIANA

CITY           SKY/WX    TMP DP  RH WIND       PRES   REMARKS
GARY*          PTCLDY    21   9  58 W6        30.09S WCI  14
MICHIGAN CITY* NOT AVBL
RENSSELAER*    NOT AVBL
VALPARAISO     PTCLDY    20  13  74 W6        30.07S WCI  12
$$

LMZ740>746-150300-
SOUTHERN LAKE MICHIGAN

STATION/POSITION TIME  SKY/WX   TEMP WIND        PRES    VSBY
                                AIR  DIR/SP/G
                 (UTC)          (F)  (DEG/KT/KT) (MB)    (MI)
HARRISON CRIB    0140            26  270/  9/ 10   N/A
BURNHAM HARBOR   0200            25  300/  8       N/A
CALUMET HARBOR   0148            23  260/  3/  7 1017.8F
BURNS HARBOR     0140            26  220/  7/ 11 1019.0S
MICHIGAN CITY    0140            25  190/  9/ 11   N/A
$$

ABBREVIATIONS USED IN REMARKS
   TC - TEMPERATURE IN CELSIUS
  WCI - WIND CHILL INDEX
   HX - HEAT INDEX
  VSB - VISIBILITY
$$




USA.gov is the U.S. government's official web portal to all federal, state and local government web resources and services.